Tracking 21676 objects as of 29-Oct-2020
HD Live streaming from Space Station
objects crossing your sky now

BLOCK DM-SL R/B

Track BLOCK DM-SL R/B now!


NORAD ID: 39774
Int'l Code: 2014-030B
Perigee: 391.6 km
Apogee: 35,480.9 km
Inclination: 0.7 °
Period: 628.6 minutes
Semi major axis: 24307 km
RCS: Unknown
Launch date: May 26, 2014
Source: Sea Launch (SEAL)
Launch site: SEA LAUNCH (SEAL)

Note: This is a ROCKET BODY
aabbcc
Your satellite tracking list
Your tracking list is empty




NASA's NSSDC Master Catalog

Two Line Element Set (TLE):
1 39774U 14030B   20303.19805645 -.00000088  00000-0  10063-3 0  9994
2 39774   0.6778 330.7815 7217871 113.2961 346.4865  2.29086184 53782
Source of the keplerian elements: AFSPC